Hourly Data Report for December 08, 2011

HALIFAX STANFIELD INT'L A
NOVA SCOTIA

44°52'48.060" N
63°30'00.050" W
145.40 m
8202250
71395
YHZ

Download Data

Hourly Data (December 2011)
Hourly Data Report for December 8, 2011
TIME
LST
Temp Definition
°C
Dew Point Definition
°C
Rel Hum Definition
%
Precip. Amount Definition
mm

Wind Dir Definition
10's deg

Wind Spd Definition
km/h
Visibility Definition
km
Stn Press Definition
kPa
Hmdx Definition


Wind Chill Definition


Weather Definition


00:00 8.3 8.3 100   14 11 1.6 98.69     Rain, Fog
01:00 8.6 8.6 100   15 17 1.2 98.54     Rain, Fog
02:00 10.2 10.2 100   16 20 0.6 98.38     Rain, Fog
03:00 12.2 12.2 100   18 19 6.4 98.32     Drizzle, Fog
04:00 13.1 13.1 100   17 28 3.2 98.15     Fog
05:00 13.4 13.4 100   18 33 3.2 97.95     Rain, Fog
06:00 13.9 13.9 100   19 33 3.2 97.84     Rain, Fog
07:00 13.2 13.2 100   18 35 2.4 97.67     Moderate Rain, Fog
08:00 13.6 13.6 100   17 59 2.4 97.29     Heavy Rain, Fog
09:00 13.9 13.9 100   19 46 3.2 97.02     Moderate Rain, Fog
10:00 13.8 13.6 99   19 59 16.1 96.63     Rain Showers
11:00 12.3 11.7 96   20 67 19.3 96.44     Mostly Cloudy
12:00 10.3 9.3 94   23 41 24.1 96.52     Drizzle
13:00 5.4 2.9 84   28 43 24.1 97.35     Mostly Cloudy
14:00 6.0 3.2 82   27 33 24.1 97.83     Cloudy
15:00 4.9 1.4 78   27 43 24.1 98.25     Cloudy
16:00 4.0 0.5 78   27 28 24.1 98.47     Drizzle
17:00 2.8 0.6 85   26 43 16.1 98.78     Rain Showers
18:00 2.6 -3.0 67   28 39 24.1 98.99     Mostly Cloudy
19:00 1.5 -4.4 65   28 28 24.1 99.26     Clear
20:00 1.3 -4.8 64   28 33 24.1 99.55     Mainly Clear
21:00 0.9 -6.2 59   28 28 24.1 99.70     Mostly Cloudy
22:00 0.1 -7.1 58   29 41 24.1 99.92     Mainly Clear
23:00 -0.4 -7.4 59   28 26 24.1 100.12   -7 Mainly Clear

Notes on Data Quality.

Legend

  • E = Estimated
  • M = Missing
  • NA = Not Available*
  • [empty] = Indicates an unobserved value
Date modified: